Weather in Concordia

Argentina     31°22′57″S   58°00′55″W
temp.,
°C
wind,
m/s
gust,
m/s
humid.,
%
clouds,
%
prec.,
mm/h
press.,
hPa
HPBL,
m
5 december, sun
sun500:00+20se412554 0.0 1017297
03:00+17ese26787 0.0 1017112
06:00+16se369262 0.0 1018128
09:00+24se355816 0.0 1019730
12:00+30sse453513 0.0 10171919
15:00+32s453194 0.0 10152797
18:00+30sse55330 0.0 10142102
21:00+23sse512530 0.0 1016360
6 december, mon
mon600:00+20se511710 0.0 1017333
03:00+16se24880 0.0 101775
06:00+15ese35903 0.0 101898
09:00+25ese34500 0.0 1020784
12:00+30se44316 0.0 10182371
15:00+33se55250 0.0 10152839
18:00+32se55258 0.0 10142878
21:00+25se512410 0.0 1016390
7 december, tue
tue700:00+22e614590 0.0 1018628
03:00+19e411790 0.0 1018379
06:00+16e39962 0.0 1019263
09:00+25ene68523 0.0 10191008
12:00+31ene57304 0.0 10172202
15:00+35e56215 0.0 10132926
18:00+33e66213 0.0 10122837
21:00+26e714316 0.0 1013590
8 december, wed
wed800:00+22e715452 0.0 1015657
03:00+18e411600 0.0 1015401
06:00+14e37820 0.0 1017167
09:00+23ene45470 0.0 1017741
12:00+31ene34240 0.0 10151709
15:00+35e34150 0.0 10122576
18:00+35e45160 0.0 10102790
21:00+27e413280 0.0 1012358
9 december, thu
thu900:00+24e6143798 0.0 1014517
03:00+19e4106549 0.0 1014309
06:00+16e3107830 0.0 1015232
09:00+25ene464286 0.0 1015762
12:00+32ene452299 0.0 10131759
15:00+36e4512100 0.0 10102572
18:00+35e661327 0.0 10082851
21:00+27e614275 0.0 1010483